STARLINK-33993 (63949 NORAD) Tracking and Keplerian Element Data

This shows tracking and keplerian element data for the satellite.

Feedback or suggestion? Click here.




ElementValue
Catalog63949
NameSTARLINK-33993
Epoch Orbit3456
Epoch Day353.62695301
Epoch Year2025
RAAN116.1552
Inclination70.0007
Eccentricity0.0003357
Argument of Perigee274.9784
Mean Anonmoly85.0992
Mean Motion14.98343329
Decay Rate2.888E-05
L11 63949U 25098Z 25353.62695301 .00002888 00000+0 24962-3 0 9996
L22 63949 70.0007 116.1552 0003357 274.9784 85.0992 14.98343329 34564



Live tracking and technical data element details for STARLINK-33993 (NORAD 63949). STARLINK-33993 can be tracked NOW for your location showing map with azimuth and elevation plus other details from your city location.







IsCatalogInMostPopularTable: catalog: 63949, numindb: 4
Update: records affected: 1



GetName: 63949 STARLINK-33993

Hit Count: updated at: Sun, 08 Feb 2026 16:30:27 GMT